{"data":{"norad_id":63810,"intl_designator":"2025-092G","name":"STARLINK-34127","alt_names":[],"object_type":"PAYLOAD","status":"ACTIVE","operator":null,"country":"US","launch_date":"2025-05-04","launch_site_code":"AFETR","launch_vehicle":null,"mission":null,"orbit_class":"UNKNOWN","rcs_meters":null,"size_class":null,"mass_kg":null,"dimensions":null,"purposes":["comms"],"wikipedia_slug":null,"has_3d_model":false,"image_url":null,"decayed_at":null,"tle_current":{"epoch":"2026-05-24T21:56:57.787872Z","epoch_age_seconds":93175,"freshness":"FRESH","line1":"1 63810U 25092G   26144.91455773  .00013962  00000+0  51583-3 0  9999","line2":"2 63810  42.9993 101.9502 0000748 259.9732 100.1035 15.27586146 60270","mean_motion":15.27586146,"eccentricity":7.48e-5,"inclination_deg":42.9993,"raan_deg":101.9502,"arg_perigee_deg":259.9732,"mean_anomaly_deg":100.1035,"bstar":0.00051583,"rev_number":6027,"period_min":94.266369446375,"perigee_km":482.51747742292,"apogee_km":483.54390810976,"semimajor_km":6861.1676927663,"source":"CELESTRAK","updated_at":"2026-05-25T13:38:20.140337Z"}}}